Flag for Romania Weather past 2 weeks in Brăila, Romania

Now
67 °F

Passing clouds.


Feels Like: 67 °F
Forecast: 66 / 81 °F
Wind: 1 mph from North

Location: Galati

Current Time: Jul 1, 2015 at 3:43:50 AM

Latest Report: Jul 1, 2015 at 3:00 AM


Visibility: 13 mi

Pressure: 30.08 "Hg

Humidity: 62%

Dew point: 54 °F

Location of BrăilaLocation

Historic Weather in Brăila — Graph

°F

Brăila temperature yesterday

Maximum temperature yesterday: 81 °F (at 3:00 PM)
Minimum temperature yesterday: 60 °F (at 5:00 AM)
Average temperature yesterday: 71 °F

Past Weeks' High & Low Weather Summary

 TemperatureHumidityPressure
High84 °F (Jun 24, 4:00 PM)99% (Jun 22, 1:00 AM)30.08 "Hg (Jun 22, 1:00 AM)
Low55 °F (Jun 22, 6:00 AM)27% (Jun 28, 7:00 PM)29.74 "Hg (Jun 19, 7:00 PM)
Average69 °F59%29.89 "Hg
* Reported Jun 16 2:00 AM — Jul 1 2:00 AM, Brăila, Weather by CustomWeather, © 2015

Note: Actual official high and low records may vary slightly from our data, if they occured in-between our weather recording intervals... More about our weather records

Advertising

Brăila weather history for previous 24 hours

 ConditionsComfort  
Time TempWeatherWind HumidityBarometerVisibility
2:00 AM
Wed, Jul 1
68 °FPassing clouds.1 mph59%30.07 "Hg12 mi
1:00 AM69 °FPassing clouds.2 mph58%30.08 "Hg12 mi
12:00 AM70 °FPassing clouds.No wind56%30.07 "Hg12 mi
11:00 PM
Tue, Jun 30
71 °FPassing clouds.1 mph57%30.07 "Hg12 mi
10:00 PM73 °FPassing clouds.No wind55%30.05 "Hg12 mi
9:00 PM75 °FPassing clouds.No wind46%30.04 "Hg12 mi
7:00 PM81 °FPassing clouds.2 mph31%30.02 "Hg12 mi
5:00 PM80 °FPartly sunny.2 mph33%30.02 "Hg12 mi
4:00 PM81 °FScattered clouds.3 mph33%30.03 "Hg12 mi
3:00 PM81 °FScattered clouds.2 mph30%30.03 "Hg12 mi
2:00 PM79 °FScattered clouds.2 mph36%30.03 "Hg12 mi
1:00 PM81 °FPartly sunny.2 mph42%30.04 "Hg12 mi
12:00 PM76 °FScattered clouds.3 mph52%30.04 "Hg12 mi
11:00 AM75 °FScattered clouds.2 mph52%30.04 "Hg12 mi
10:00 AM72 °FScattered clouds.3 mph56%30.04 "Hg12 mi
9:00 AM68 °FScattered clouds.3 mph60%30.03 "Hg12 mi
8:00 AM63 °FPassing clouds.1 mph67%30.03 "Hg12 mi
7:00 AM61 °FPassing clouds.1 mph66%30.02 "Hg12 mi
6:00 AM62 °FScattered clouds.1 mph68%30.01 "Hg12 mi
5:00 AM60 °FPassing clouds.2 mph77%30.01 "Hg12 mi
4:00 AM61 °FPassing clouds.1 mph65%30.01 "Hg12 mi
3:00 AM61 °FPassing clouds.1 mph66%30.01 "Hg12 mi
Weather by CustomWeather, © 2015

See weather overviewHow to use our weather pages